DL2JNL Weather Reports


Display with metric or nautical units.
time (UTC)temp
F
wind
direction
speed
MPH
gust
MPH
rain 1hr
in
rain 24hr
in
rain mn
in
humidity
%
barometer
mb
20260507050538 44 355 0.0 4.0 0.00 0.11 0.00 93 1012.5
20260507050050 44 343 0.0 2.0 0.00 0.11 0.00 93 1012.4
20260507045542 44 333 0.0 2.0 0.00 0.12 0.00 93 1012.3
20260507045039 44 287 0.0 3.0 0.00 0.12 0.00 93 1012.4
20260507044604 44 0 0.0 3.0 0.00 0.12 0.00 93 1012.4
20260507044039 44 0 0.0 3.0 0.00 0.12 0.00 93 1012.3
20260507043541 44 354 0.0 3.0 0.00 0.12 0.00 93 1012.2
20260507043102 44 0 0.0 4.0 0.00 0.12 0.00 93 1012.1
20260507042542 44 342 0.0 4.0 0.00 0.12 0.00 93 1012.1
20260507042046 44 324 0.0 2.0 0.00 0.12 0.00 93 1012.2
20260507041556 44 0 0.0 2.0 0.00 0.12 0.00 93 1012.0
20260507041042 44 0 0.0 2.0 0.00 0.12 0.00 93 1012.1
20260507040541 44 0 0.0 2.0 0.00 0.12 0.00 93 1011.9
20260507040051 44 0 0.0 1.0 0.00 0.12 0.00 93 1012.0
20260507035541 44 0 0.0 1.0 0.00 0.14 0.00 93 1012.0
20260507035039 44 0 0.0 1.0 0.00 0.14 0.00 93 1011.8
20260507034553 44 0 0.0 1.0 0.00 0.14 0.00 93 1011.9
20260507034040 44 0 0.0 2.0 0.00 0.14 0.00 93 1011.9
20260507033539 44 0 0.0 2.0 0.00 0.14 0.00 93 1011.7
20260507033044 44 0 0.0 1.0 0.00 0.14 0.00 93 1011.8
20260507032545 44 356 0.0 1.0 0.00 0.14 0.00 93 1011.8
20260507032042 44 322 0.0 1.0 0.00 0.14 0.00 93 1011.9
20260507031550 44 0 0.0 1.0 0.00 0.14 0.00 93 1011.8
20260507031041 44 0 0.0 1.0 0.00 0.14 0.00 93 1011.7
20260507030541 44 304 0.0 1.0 0.00 0.14 0.00 93 1011.7
20260507030051 44 321 0.0 1.0 0.00 0.14 0.00 93 1011.8
20260507025538 44 0 0.0 1.0 0.00 0.14 0.00 93 1011.7
20260507025040 44 0 0.0 1.0 0.00 0.14 0.00 93 1011.7
20260507024553 44 0 0.0 1.0 0.00 0.14 0.00 93 1011.6
20260507024041 44 0 0.0 1.0 0.00 0.14 0.00 93 1011.7
20260507023541 44 345 0.0 1.0 0.00 0.14 0.00 92 1011.6
20260507023057 44 0 0.0 1.0 0.00 0.14 0.00 92 1011.7
20260507022541 44 0 0.0 1.0 0.00 0.14 0.00 92 1011.7
20260507022124 44 0 0.0 1.0 0.00 0.14 0.00 92 1011.6
20260507021549 44 355 0.0 3.0 0.00 0.14 0.00 92 1011.7
20260507021041 44 0 0.0 3.0 0.00 0.14 0.00 92 1011.6
20260507020542 44 0 0.0 3.0 0.00 0.14 0.00 92 1011.5
20260507020056 44 0 0.0 1.0 0.00 0.14 0.00 92 1011.4
20260507015538 44 0 0.0 2.0 0.00 0.14 0.00 92 1011.3
20260507015038 44 343 0.0 2.0 0.00 0.14 0.00 92 1011.4
20260507014546 44 0 0.0 2.0 0.00 0.14 0.00 92 1011.4
20260507014038 44 0 0.0 2.0 0.00 0.14 0.00 92 1011.1
20260507013538 44 0 0.0 3.0 0.00 0.14 0.00 92 1011.2
20260507013046 44 0 0.0 3.0 0.00 0.14 0.00 92 1011.2
20260507012546 44 1 0.0 3.0 0.00 0.14 0.00 92 1011.2
20260507012038 44 15 0.0 3.0 0.00 0.14 0.00 92 1011.2
20260507011548 44 349 0.0 2.0 0.00 0.14 0.00 92 1011.2
20260507011042 44 37 0.0 2.0 0.00 0.14 0.00 92 1011.2
20260507010542 44 0 0.0 3.0 0.00 0.14 0.00 92 1011.0
20260507010047 44 330 0.0 3.0 0.00 0.14 0.00 92 1010.9
20260507005542 44 0 0.0 3.0 0.00 0.17 0.00 92 1011.0
20260507005041 44 278 0.0 3.0 0.00 0.17 0.00 92 1010.8
20260507004548 44 0 0.0 2.0 0.00 0.17 0.00 92 1010.9
20260507004041 44 349 0.0 2.0 0.00 0.17 0.00 92 1010.9
20260507003541 44 0 0.0 2.0 0.00 0.17 0.00 92 1011.0
20260507003056 44 0 0.0 3.0 0.00 0.17 0.00 92 1010.9
20260507002540 44 349 0.0 3.0 0.00 0.17 0.00 92 1010.8
20260507002042 44 0 0.0 3.0 0.00 0.17 0.00 92 1010.8
20260507001610 44 0 0.0 1.0 0.00 0.17 0.00 92 1010.8
20260507001042 44 0 0.0 1.0 0.00 0.17 0.00 92 1010.8
20260507000545 44 0 0.0 1.0 0.00 0.17 0.00 92 1010.7
20260507000051 44 359 0.0 1.0 0.00 0.17 0.00 92 1010.8
20260506235543 44 0 0.0 1.0 0.00 0.20 0.00 91 1010.7
20260506235042 44 0 0.0 1.0 0.00 0.20 0.00 92 1010.7
20260506234555 44 0 0.0 2.0 0.00 0.20 0.00 92 1010.8
20260506234043 44 0 0.0 3.0 0.00 0.20 0.00 92 1010.8
20260506233544 44 342 0.0 3.0 0.00 0.20 0.00 92 1010.7
20260506233058 44 339 0.0 1.0 0.00 0.20 0.00 92 1010.9
20260506232543 44 37 0.0 1.0 0.00 0.20 0.00 92 1010.7
20260506232042 44 13 0.0 1.0 0.00 0.20 0.00 92 1010.7
20260506231604 44 0 0.0 1.0 0.00 0.20 0.00 92 1010.5
20260506231044 44 264 0.0 1.0 0.00 0.20 0.00 92 1010.6
20260506230542 44 329 0.0 1.0 0.00 0.20 0.00 92 1010.7
20260506230113 44 0 0.0 1.0 0.00 0.20 0.00 92 1010.5
20260506225545 44 0 0.0 1.0 0.00 0.25 0.00 92 1010.5
20260506225043 44 0 0.0 1.0 0.00 0.25 0.00 92 1010.7
20260506224549 44 0 0.0 2.0 0.00 0.25 0.00 92 1010.5
20260506224042 44 354 0.0 2.0 0.00 0.25 0.00 92 1010.4
20260506223546 44 0 0.0 2.0 0.00 0.25 0.00 92 1010.3
20260506223103 44 349 0.0 2.0 0.00 0.25 0.00 91 1010.3
20260506222541 44 353 0.0 2.0 0.00 0.25 0.00 91 1010.3
20260506222042 44 0 0.0 3.0 0.00 0.25 0.00 91 1010.2
20260506221606 44 293 0.0 3.0 0.00 0.25 0.00 91 1010.4
20260506221040 44 0 1.0 5.0 0.00 0.25 0.00 91 1010.3
20260506220541 44 9 0.0 5.0 0.00 0.25 0.00 92 1010.3
20260506220049 44 340 1.0 5.0 0.00 0.25 0.00 92 1010.4
20260506215543 44 358 1.0 5.0 0.00 0.30 0.25 92 1010.3
20260506215043 44 0 1.0 6.0 0.00 0.30 0.25 92 1010.3
20260506214554 44 0 1.0 6.0 0.00 0.30 0.25 92 1010.3
20260506214041 44 341 1.0 4.0 0.00 0.30 0.25 92 1010.3
20260506213543 45 0 0.0 4.0 0.00 0.30 0.25 92 1010.2
20260506213103 45 46 0.0 4.0 0.00 0.30 0.25 92 1010.1
20260506212541 45 0 0.0 4.0 0.00 0.30 0.25 92 1010.1
20260506212043 45 32 0.0 7.0 0.00 0.30 0.25 92 1010.2
20260506211600 45 342 1.0 7.0 0.00 0.30 0.25 92 1010.1
20260506211043 45 348 1.0 3.0 0.00 0.30 0.25 92 1010.0
20260506210543 45 354 0.0 3.0 0.00 0.30 0.25 92 1010.1
20260506210058 45 0 1.0 3.0 0.00 0.30 0.25 92 1010.1
20260506205546 45 306 0.0 4.0 0.00 0.39 0.25 92 1010.1
20260506205040 45 0 0.0 4.0 0.00 0.39 0.25 92 1010.1
20260506204550 45 353 0.0 4.0 0.00 0.39 0.25 92 1009.9
20260506204043 45 10 0.0 3.0 0.00 0.39 0.25 92 1010.0
20260506203542 45 266 0.0 4.0 0.00 0.39 0.25 92 1010.0
20260506203105 45 347 0.0 4.0 0.00 0.39 0.25 92 1010.0
20260506202544 45 0 0.0 2.0 0.00 0.39 0.25 92 1009.9
20260506202042 45 0 0.0 2.0 0.00 0.39 0.25 92 1009.8
20260506201552 45 346 0.0 3.0 0.00 0.39 0.25 92 1009.7
20260506201045 45 333 0.0 3.0 0.00 0.39 0.25 92 1009.7
20260506200548 45 0 0.0 1.0 0.00 0.39 0.25 92 1009.8
20260506200055 45 343 0.0 1.0 0.00 0.39 0.25 92 1009.6
20260506195541 45 0 0.0 1.0 0.00 0.60 0.25 92 1009.7
20260506195041 45 340 0.0 1.0 0.00 0.60 0.25 92 1009.7
20260506194550 45 0 0.0 1.0 0.00 0.60 0.25 92 1009.6
20260506194042 45 0 0.0 1.0 0.00 0.60 0.25 92 1009.5
20260506193543 45 0 0.0 1.0 0.00 0.60 0.25 92 1009.4
20260506193056 45 0 0.0 1.0 0.00 0.60 0.25 92 1009.5
20260506192542 45 0 0.0 1.0 0.00 0.60 0.25 91 1009.6
20260506192043 45 0 0.0 1.0 0.00 0.60 0.25 91 1009.3
20260506191549 45 0 0.0 1.0 0.00 0.60 0.25 92 1009.4
20260506191042 45 0 0.0 1.0 0.00 0.60 0.25 91 1009.4
20260506190543 45 0 0.0 1.0 0.00 0.60 0.25 91 1009.2
20260506190052 45 0 0.0 3.0 0.00 0.60 0.25 91 1009.2
20260506185542 45 0 0.0 3.0 0.00 0.86 0.25 91 1009.2
20260506185041 45 342 0.0 3.0 0.00 0.86 0.25 91 1009.1
20260506184550 45 329 0.0 3.0 0.00 0.86 0.25 91 1009.0
20260506184043 45 1 0.0 2.0 0.00 0.86 0.25 91 1008.9
20260506183544 45 0 0.0 2.0 0.00 0.86 0.25 91 1008.9
20260506183053 45 9 0.0 2.0 0.00 0.86 0.25 91 1008.7
20260506182541 45 0 0.0 2.0 0.00 0.86 0.25 91 1008.8
20260506182042 45 0 0.0 3.0 0.00 0.86 0.25 91 1008.8
20260506181554 46 356 0.0 3.0 0.00 0.86 0.25 91 1008.8
20260506181041 46 0 0.0 2.0 0.00 0.86 0.25 91 1008.8
20260506180545 46 1 0.0 3.0 0.00 0.86 0.25 91 1008.5
20260506180053 46 0 0.0 3.0 0.00 0.86 0.25 91 1008.6
20260506175540 46 4 1.0 4.0 0.00 1.07 0.25 91 1008.6
20260506175044 46 342 0.0 4.0 0.00 1.07 0.25 91 1008.5
20260506174544 46 287 0.0 4.0 0.00 1.07 0.25 91 1008.5
20260506174040 46 0 0.0 3.0 0.00 1.07 0.25 91 1008.5
20260506173541 46 343 0.0 3.0 0.00 1.07 0.25 91 1008.5
20260506173046 46 352 1.0 3.0 0.00 1.07 0.25 91 1008.3
20260506172541 46 0 0.0 1.0 0.00 1.07 0.25 91 1008.4
20260506172041 46 0 0.0 3.0 0.00 1.07 0.25 91 1008.2
20260506171549 47 0 0.0 3.0 0.00 1.07 0.25 91 1008.2
20260506171043 47 314 0.0 2.0 0.00 1.07 0.25 92 1008.3
20260506170541 47 0 0.0 3.0 0.00 1.07 0.25 91 1008.1
20260506170054 47 0 0.0 3.0 0.00 1.07 0.25 91 1008.1
20260506165546 47 340 0.0 1.0 0.00 1.19 0.25 92 1008.0
20260506165041 47 23 0.0 3.0 0.00 1.19 0.25 92 1007.9
20260506164606 47 0 0.0 3.0 0.00 1.19 0.25 92 1007.9
20260506164042 47 39 0.0 3.0 0.00 1.19 0.25 92 1007.9
20260506163540 47 0 0.0 3.0 0.00 1.19 0.25 91 1007.9
20260506163100 47 335 0.0 1.0 0.00 1.19 0.25 91 1007.9
20260506162545 47 0 0.0 2.0 0.00 1.19 0.25 92 1007.9
20260506162042 47 0 0.0 2.0 0.00 1.19 0.25 92 1007.8
20260506161547 47 360 0.0 3.0 0.00 1.19 0.25 91 1007.9
20260506161041 47 0 0.0 3.0 0.00 1.19 0.25 91 1007.8
20260506160542 47 0 0.0 3.0 0.00 1.19 0.25 92 1007.8
20260506160052 47 316 0.0 4.0 0.00 1.19 0.25 91 1007.8
20260506155541 47 2 0.0 4.0 0.00 1.21 0.25 92 1007.7
20260506155041 47 0 1.0 4.0 0.01 1.21 0.25 91 1007.7
20260506154554 47 2 0.0 3.0 0.01 1.21 0.25 92 1007.9
20260506154041 47 318 0.0 3.0 0.02 1.21 0.25 92 1007.7
20260506153544 47 0 0.0 3.0 0.03 1.21 0.25 92 1007.7
20260506153051 47 352 1.0 3.0 0.03 1.20 0.24 91 1007.6
20260506152542 47 15 0.0 3.0 0.03 1.20 0.24 92 1007.7
20260506152043 47 335 0.0 3.0 0.03 1.20 0.24 91 1007.6
20260506151547 48 0 0.0 3.0 0.03 1.20 0.24 91 1007.6
20260506151041 48 345 0.0 3.0 0.04 1.20 0.24 91 1007.5
20260506150544 48 359 0.0 3.0 0.04 1.20 0.24 91 1007.6
20260506150100 48 345 0.0 4.0 0.04 1.20 0.24 91 1007.5
20260506145541 48 0 0.0 4.0 0.05 1.20 0.24 91 1007.5
20260506145041 48 0 0.0 4.0 0.04 1.19 0.23 91 1007.6
20260506144550 48 351 1.0 4.0 0.04 1.19 0.23 91 1007.5
20260506144041 48 349 1.0 5.0 0.03 1.18 0.22 91 1007.5
20260506143541 48 23 0.0 6.0 0.03 1.17 0.21 91 1007.4
20260506143046 48 343 2.0 6.0 0.03 1.17 0.21 90 1007.3
20260506142540 49 356 0.0 6.0 0.02 1.16 0.20 91 1007.3
20260506142041 49 336 1.0 6.0 0.02 1.16 0.20 90 1007.3
20260506141549 49 321 1.0 5.0 0.02 1.16 0.20 90 1007.4
20260506141042 49 4 1.0 5.0 0.01 1.15 0.19 90 1007.3
20260506140542 50 37 1.0 4.0 0.01 1.15 0.19 90 1007.2
20260506140048 50 345 0.0 4.0 0.01 1.15 0.19 90 1007.2
20260506135542 50 327 0.0 3.0 0.00 1.14 0.18 90 1007.3
20260506135042 50 1 0.0 3.0 0.00 1.14 0.18 90 1007.2
20260506134544 50 349 0.0 6.0 0.00 1.14 0.18 90 1007.1
20260506134045 50 322 0.0 6.0 0.00 1.14 0.18 90 1007.1
20260506133542 51 314 0.0 6.0 0.00 1.14 0.18 90 1007.0
20260506133107 50 339 0.0 6.0 0.00 1.14 0.18 90 1007.0
20260506132541 51 15 1.0 5.0 0.00 1.14 0.18 90 1006.9
20260506132043 50 0 0.0 5.0 0.00 1.14 0.18 90 1007.0
20260506131558 50 0 0.0 4.0 0.00 1.14 0.18 90 1006.7
20260506131044 51 0 0.0 5.0 0.01 1.14 0.18 91 1006.8
20260506130541 50 352 1.0 5.0 0.01 1.14 0.18 91 1007.0
20260506130046 51 340 1.0 3.0 0.01 1.14 0.18 91 1006.8
20260506125542 51 354 0.0 5.0 0.01 1.14 0.18 91 1007.0
20260506125040 50 0 1.0 5.0 0.01 1.14 0.18 90 1006.9
20260506124548 51 330 1.0 5.0 0.01 1.14 0.18 90 1006.9
20260506124044 51 13 1.0 4.0 0.01 1.14 0.18 90 1006.8
20260506123543 51 0 0.0 5.0 0.01 1.14 0.18 90 1006.8
20260506123049 51 0 1.0 5.0 0.01 1.14 0.18 90 1006.8
20260506122542 51 264 0.0 5.0 0.00 1.13 0.17 90 1006.7
20260506122041 51 0 0.0 5.0 0.00 1.13 0.17 90 1006.8
20260506121554 51 5 0.0 4.0 0.00 1.13 0.17 89 1006.7
20260506121041 51 0 0.0 4.0 0.00 1.12 0.16 89 1006.7
20260506120541 51 0 0.0 5.0 0.00 1.12 0.16 89 1006.6
20260506120056 52 0 0.0 6.0 0.00 1.12 0.16 89 1006.5
20260506115541 52 4 1.0 6.0 0.00 1.12 0.16 89 1006.5
20260506115042 52 0 0.0 6.0 0.00 1.12 0.16 89 1006.5
20260506114550 52 0 0.0 5.0 0.00 1.12 0.16 88 1006.5
20260506114046 52 217 0.0 5.0 0.00 1.12 0.16 89 1006.4
20260506113542 52 307 0.0 6.0 0.00 1.12 0.16 88 1006.3
20260506113051 52 284 0.0 6.0 0.00 1.12 0.16 88 1006.4
20260506112545 52 350 0.0 5.0 0.00 1.12 0.16 88 1006.4
20260506112041 52 17 0.0 5.0 0.00 1.12 0.16 88 1006.3
20260506111550 53 345 1.0 5.0 0.00 1.12 0.16 87 1006.2
20260506111041 53 334 0.0 4.0 0.00 1.12 0.16 87 1006.2
20260506110541 53 304 0.0 4.0 0.00 1.12 0.16 87 1006.2
20260506110109 53 281 0.0 4.0 0.00 1.12 0.16 87 1006.2
20260506105541 53 285 0.0 5.0 0.00 1.12 0.16 86 1006.2
20260506105046 53 263 0.0 5.0 0.00 1.12 0.16 87 1006.2
20260506104603 53 297 0.0 4.0 0.00 1.12 0.16 87 1006.3
20260506104041 53 278 1.0 4.0 0.00 1.12 0.16 87 1006.2
20260506103541 53 12 1.0 4.0 0.00 1.12 0.16 87 1006.1
20260506103049 53 14 0.0 3.0 0.00 1.12 0.16 87 1006.1
20260506102544 53 0 0.0 3.0 0.00 1.12 0.16 88 1006.3
20260506102045 53 0 0.0 3.0 0.00 1.12 0.16 88 1006.2
20260506101552 52 0 0.0 3.0 0.00 1.12 0.16 88 1006.1
20260506101041 52 353 0.0 4.0 0.00 1.12 0.16 88 1006.1
20260506100543 52 0 0.0 4.0 0.00 1.12 0.16 88 1006.0
20260506100058 53 345 0.0 4.0 0.00 1.12 0.16 88 1006.0
20260506095542 52 316 0.0 3.0 0.00 1.12 0.16 88 1006.0
20260506095042 53 295 0.0 3.0 0.00 1.12 0.16 88 1005.9
20260506094600 52 0 0.0 3.0 0.00 1.12 0.16 88 1006.0
20260506094041 52 263 0.0 5.0 0.00 1.12 0.16 88 1006.0
20260506093541 52 295 0.0 7.0 0.00 1.12 0.16 89 1006.0
20260506093050 52 342 0.0 7.0 0.00 1.12 0.16 89 1006.0
20260506092541 52 340 1.0 4.0 0.00 1.12 0.16 89 1005.9
20260506092041 52 292 0.0 4.0 0.00 1.12 0.16 89 1005.8
20260506091552 52 0 0.0 1.0 0.00 1.12 0.16 90 1005.9
20260506091043 52 0 0.0 3.0 0.00 1.12 0.16 90 1005.9
20260506090540 52 0 0.0 4.0 0.00 1.12 0.16 90 1006.0
20260506090053 52 11 0.0 4.0 0.00 1.12 0.16 90 1005.9
20260506085541 52 0 0.0 4.0 0.00 1.12 0.16 90 1005.9
20260506085041 52 295 0.0 4.0 0.00 1.12 0.16 90 1005.9
20260506084614 52 0 0.0 5.0 0.00 1.12 0.16 90 1005.9
20260506084041 52 0 0.0 5.0 0.00 1.12 0.16 90 1005.7
20260506083542 52 291 0.0 5.0 0.00 1.12 0.16 90 1005.8
20260506083050 52 305 0.0 3.0 0.00 1.12 0.16 91 1005.7
20260506082543 52 249 0.0 3.0 0.00 1.12 0.16 91 1005.6
20260506082043 53 269 0.0 1.0 0.00 1.12 0.16 91 1005.4
20260506081557 53 0 0.0 1.0 0.00 1.12 0.16 92 1005.5
20260506081041 53 0 0.0 1.0 0.00 1.12 0.16 92 1005.5
20260506080541 53 0 0.0 1.0 0.00 1.12 0.16 92 1005.4
20260506073050 52 0 0.0 0.0 0.00 1.12 0.16 93 1005.4
20260506072542 52 0 0.0 0.0 0.00 1.12 0.16 94 1005.4
20260506072042 51 0 0.0 1.0 0.00 1.12 0.16 93 1005.5
20260506071549 51 0 0.0 1.0 0.00 1.12 0.16 93 1005.4
20260506071038 51 342 0.0 1.0 0.00 1.12 0.16 94 1005.3
20260506070542 51 0 0.0 1.0 0.00 1.12 0.16 94 1005.5
20260506062041 50 0 0.0 1.0 0.00 1.12 0.16 94 1005.4
20260506061555 50 0 0.0 1.0 0.01 1.12 0.16 94 1005.4
20260506061043 50 0 0.0 1.0 0.01 1.12 0.16 93 1005.4
20260506060542 50 0 0.0 1.0 0.01 1.12 0.16 94 1005.3
20260506051042 50 0 0.0 0.0 0.02 1.11 0.14 93 1005.4